Total_Precipitation_Accumulation
0.16 0.29 0.57 0.72 0.85 0.88 0.78 0.78 0.74 0.71 0.72 0.70 0.66 0.63 0.57 0.55 0.52 0.50 0.50 0.53 0.62 0.70 0.78 0.82 0.78 0.70 0.60 0.50 0.36 0.25 0.22 0.24 0.22 0.18 0.16 0.20 0.27 0.28 0.25 0.25 0.28 0.33 0.45
0.16 0.26 0.52 0.70 0.91 0.96 0.88 0.81 0.70 0.65 0.69 0.77 0.76 0.71 0.67 0.63 0.61 0.58 0.63 0.66 0.74 0.77 0.80 0.84 0.81 0.65 0.51 0.38 0.28 0.21 0.19 0.12 0.09 0.06 0.04 0.09 0.18 0.24 0.23 0.24 0.26 0.37 0.44
0.19 0.27 0.48 0.71 0.92 0.96 0.88 0.79 0.66 0.61 0.66 0.78 0.86 0.80 0.75 0.72 0.72 0.67 0.70 0.76 0.84 0.84 0.76 0.69 0.66 0.49 0.37 0.25 0.20 0.17 0.15 0.11 0.07 0.05 0.06 0.13 0.20 0.31 0.30 0.27 0.34 0.43 0.42
0.25 0.32 0.48 0.75 0.98 1.04 0.96 0.84 0.71 0.69 0.72 0.81 0.96 0.98 0.90 0.82 0.80 0.80 0.78 0.78 0.80 0.76 0.67 0.54 0.48 0.34 0.26 0.22 0.16 0.15 0.13 0.12 0.07 0.06 0.11 0.16 0.22 0.41 0.43 0.38 0.40 0.43 0.38
0.33 0.40 0.56 0.81 1.06 1.10 1.00 0.90 0.78 0.77 0.82 0.89 0.98 1.08 1.07 0.96 0.95 0.93 0.87 0.77 0.74 0.69 0.54 0.42 0.36 0.25 0.18 0.16 0.15 0.14 0.13 0.11 0.06 0.07 0.12 0.18 0.27 0.50 0.49 0.43 0.43 0.44 0.36
0.45 0.56 0.70 0.90 1.14 1.24 1.11 0.98 0.89 0.88 0.94 1.00 1.06 1.14 1.16 1.14 1.17 1.08 0.89 0.74 0.65 0.57 0.46 0.37 0.32 0.23 0.17 0.15 0.14 0.13 0.13 0.11 0.07 0.08 0.10 0.15 0.25 0.48 0.53 0.45 0.44 0.45 0.43
0.51 0.73 0.93 1.10 1.26 1.43 1.34 1.20 1.10 1.06 1.05 1.08 1.12 1.15 1.18 1.19 1.25 1.18 0.90 0.71 0.61 0.55 0.48 0.38 0.32 0.26 0.19 0.17 0.15 0.12 0.12 0.11 0.10 0.11 0.11 0.14 0.28 0.55 0.60 0.54 0.53 0.52 0.49
0.63 0.83 1.14 1.45 1.53 1.64 1.61 1.41 1.28 1.18 1.15 1.18 1.19 1.21 1.24 1.28 1.28 1.24 0.94 0.73 0.62 0.61 0.56 0.46 0.37 0.31 0.24 0.19 0.16 0.14 0.13 0.09 0.09 0.11 0.11 0.14 0.27 0.45 0.50 0.47 0.47 0.47 0.44
0.92 1.00 1.19 1.49 1.70 1.80 1.80 1.53 1.44 1.28 1.19 1.21 1.28 1.30 1.21 1.19 1.23 1.19 0.95 0.79 0.71 0.73 0.69 0.60 0.50 0.40 0.29 0.24 0.19 0.14 0.10 0.08 0.08 0.11 0.10 0.14 0.23 0.38 0.40 0.38 0.42 0.44 0.43
1.36 1.35 1.36 1.54 1.72 1.91 1.95 1.60 1.41 1.28 1.21 1.19 1.19 1.09 0.94 0.93 1.00 1.06 0.96 0.84 0.76 0.77 0.73 0.64 0.56 0.46 0.36 0.28 0.21 0.14 0.10 0.08 0.09 0.11 0.12 0.14 0.25 0.37 0.39 0.40 0.41 0.43 0.45
1.78 1.78 1.72 1.71 1.71 1.82 1.92 1.72 1.57 1.41 1.25 1.17 1.13 1.00 0.91 0.91 0.92 0.84 0.78 0.76 0.75 0.76 0.79 0.71 0.60 0.51 0.37 0.27 0.20 0.16 0.13 0.11 0.13 0.17 0.17 0.19 0.29 0.37 0.42 0.46 0.46 0.46 0.47
1.87 1.87 1.91 1.91 1.85 1.85 1.86 1.85 1.75 1.54 1.36 1.20 1.09 1.01 1.01 1.00 0.96 0.84 0.79 0.75 0.78 0.80 0.87 0.83 0.67 0.58 0.42 0.33 0.26 0.20 0.17 0.14 0.16 0.21 0.19 0.24 0.36 0.45 0.50 0.49 0.43 0.44 0.47
2.13 2.03 2.01 2.07 2.12 2.01 1.96 1.87 1.76 1.54 1.40 1.33 1.21 1.10 1.09 1.19 1.13 1.07 0.92 0.83 0.84 0.80 0.81 0.81 0.74 0.60 0.45 0.37 0.32 0.24 0.21 0.21 0.20 0.22 0.23 0.29 0.43 0.55 0.56 0.51 0.42 0.41 0.45
2.53 2.38 2.33 2.40 2.38 2.25 2.12 1.98 1.83 1.59 1.39 1.32 1.28 1.29 1.23 1.20 1.10 1.05 0.98 0.82 0.79 0.77 0.75 0.76 0.70 0.64 0.58 0.47 0.40 0.37 0.32 0.29 0.28 0.31 0.31 0.30 0.40 0.54 0.62 0.64 0.55 0.53 0.54
2.74 2.75 2.69 2.70 2.71 2.57 2.42 2.19 1.89 1.73 1.49 1.35 1.31 1.34 1.29 1.20 1.11 1.05 1.01 0.98 0.85 0.79 0.75 0.81 0.81 0.74 0.69 0.64 0.54 0.44 0.40 0.39 0.37 0.38 0.37 0.37 0.41 0.51 0.66 0.77 0.78 0.77 0.78
2.76 2.93 3.04 3.03 2.93 2.80 2.60 2.37 2.03 1.86 1.67 1.54 1.44 1.35 1.32 1.30 1.28 1.21 1.07 1.01 0.96 0.87 0.82 0.86 0.90 0.83 0.79 0.72 0.64 0.55 0.48 0.46 0.39 0.37 0.38 0.38 0.38 0.46 0.61 0.77 0.89 0.99 1.02
2.72 3.02 3.19 3.31 3.39 3.13 2.87 2.63 2.33 2.14 1.93 1.76 1.57 1.44 1.35 1.29 1.37 1.36 1.26 1.09 0.99 1.01 0.98 0.97 1.01 1.02 0.92 0.79 0.72 0.66 0.59 0.52 0.46 0.42 0.41 0.39 0.37 0.35 0.46 0.64 0.84 0.96 1.04
2.68 2.91 3.11 3.13 3.36 3.44 3.26 2.99 2.59 2.32 2.15 2.01 1.84 1.65 1.56 1.42 1.46 1.51 1.42 1.32 1.22 1.22 1.21 1.14 1.05 0.97 0.89 0.78 0.72 0.70 0.66 0.61 0.54 0.53 0.52 0.45 0.39 0.33 0.36 0.46 0.60 0.78 0.93
2.71 2.83 3.10 3.11 3.19 3.37 3.48 3.32 3.02 2.72 2.44 2.27 2.17 1.97 1.85 1.74 1.67 1.68 1.62 1.52 1.49 1.45 1.42 1.33 1.19 1.05 0.93 0.83 0.77 0.78 0.77 0.72 0.67 0.63 0.57 0.49 0.45 0.42 0.41 0.40 0.42 0.52 0.65
2.78 3.02 3.21 3.36 3.38 3.54 3.86 3.83 3.53 3.23 2.92 2.70 2.50 2.34 2.18 2.09 1.99 1.89 1.85 1.77 1.72 1.62 1.54 1.51 1.38 1.23 1.07 1.00 0.96 0.88 0.82 0.76 0.74 0.70 0.65 0.58 0.52 0.50 0.53 0.53 0.51 0.50 0.55
2.50 2.84 2.96 3.23 3.43 3.57 3.68 3.66 3.44 3.16 2.94 2.79 2.74 2.69 2.50 2.32 2.25 2.14 2.00 2.00 1.94 1.78 1.61 1.59 1.58 1.45 1.31 1.29 1.23 1.01 0.86 0.78 0.74 0.69 0.72 0.72 0.63 0.56 0.56 0.62 0.67 0.63 0.54
2.13 2.37 2.59 2.81 3.07 3.26 3.29 3.30 3.37 3.37 3.13 2.86 2.77 2.75 2.73 2.63 2.47 2.30 2.15 2.09 2.07 2.01 1.80 1.67 1.71 1.67 1.55 1.51 1.51 1.44 1.23 1.03 0.81 0.71 0.72 0.72 0.69 0.67 0.60 0.58 0.59 0.63 0.63
1.88 2.06 2.27 2.51 2.67 2.78 3.07 3.30 3.35 3.55 3.47 3.04 2.70 2.53 2.64 2.74 2.75 2.55 2.35 2.31 2.26 2.23 2.12 1.95 1.86 1.83 1.78 1.70 1.69 1.85 1.63 1.30 0.97 0.81 0.78 0.77 0.74 0.76 0.74 0.68 0.63 0.62 0.65
1.61 1.78 2.01 2.32 2.55 2.58 2.83 3.01 2.97 2.89 2.95 2.75 2.56 2.55 2.62 2.70 2.76 2.76 2.62 2.44 2.37 2.33 2.27 2.32 2.32 2.18 2.07 1.88 1.75 1.65 1.60 1.43 1.35 1.12 0.89 0.86 0.83 0.78 0.82 0.80 0.74 0.70 0.66
1.37 1.48 1.69 2.07 2.38 2.51 2.58 2.70 2.82 2.81 2.78 2.83 2.76 2.69 2.60 2.50 2.56 2.68 2.69 2.56 2.32 2.20 2.15 2.19 2.28 2.33 2.21 2.00 1.85 1.73 1.64 1.46 1.36 1.38 1.18 0.99 0.94 0.83 0.80 0.84 0.87 0.88 0.87
1.18 1.20 1.37 1.62 2.06 2.43 2.53 2.54 2.58 2.60 2.55 2.61 2.71 2.67 2.64 2.50 2.38 2.39 2.42 2.39 2.32 2.19 2.08 2.11 2.22 2.31 2.33 2.25 2.05 1.84 1.74 1.63 1.42 1.42 1.38 1.22 1.18 1.04 0.92 0.92 0.96 1.01 1.02